Belen, NM

5:55 PM MDT on March 27, 2017 (GMT -0600)
Belen

Weather History for KE80 - July, 2013

Change the Weather History Date:

Wednesday, July 31, 2013

  Actual Average (KABQ) Record (KABQ)
Temperature  
Mean Temperature 80 °F -  
Max Temperature 93 °F 91 °F 103 °F (1972)
Min Temperature 66 °F 64 °F 49 °F (1911)
Cooling Degree Days 14    
Growing Degree Days 30 (Base 50)    
Moisture  
Dew Point 51 °F    
Average Humidity 39    
Maximum Humidity 72    
Minimum Humidity 15    
Precipitation  
Precipitation 0.00 in - - ()
Sea Level Pressure  
Sea Level Pressure 30.26 in    
Wind  
Wind Speed 6 mph (SSE)    
Max Wind Speed 21 mph    
Max Gust Speed 29 mph    
Visibility 10 miles    
Events      
Averages and records for this station are not official NWS values.
T = Trace of Precipitation, MM = Missing Value Source: NWS Daily Summary

Daily Weather History Graph

Daily Weather History Graph

Search for Another Location

Airport or City:

Trip Planner

Search our weather history database for the weather conditions in past years. The results will help you decide how hot, cold, wet, or windy it might be!

Date:

Astronomy

Jul. 31, 2013 Rise Set
Actual Time 6:16 AM MDT 8:09 PM MDT
Civil Twilight 5:49 AM MDT 8:37 PM MDT
Nautical Twilight 5:15 AM MDT 9:11 PM MDT
Astronomical Twilight 4:39 AM MDT 9:46 PM MDT
Moon 1:14 AM MDT (7/31) 3:27 PM MDT (7/31)
Length of Visible Light 14h 48m
Length of Day
13h 53m
Waning Crescent, 31% of the Moon is Illuminated
Jul 31
Waning Crescent
Aug 6
New
Aug 14
First Quarter
Aug 20
Full
Aug 28
Last Quarter

Hourly Weather History & Observations

Time (MDT) Temp. Heat Index Dew Point Humidity Pressure Visibility Wind Dir Wind Speed Gust Speed Precip Events Conditions
12:15 AM 77.9 °F - 48.4 °F 35% 30.26 in 10.0 mi SSW 4.6 mph - N/A   Scattered Clouds
12:35 AM 79.9 °F - 48.0 °F 33% 30.26 in 10.0 mi SE 10.4 mph - N/A   Clear
12:55 AM 77.7 °F - 50.2 °F 38% 30.26 in 10.0 mi SE 6.9 mph - N/A   Clear
1:15 AM 77.2 °F - 51.4 °F 41% 30.27 in 10.0 mi SE 5.8 mph - N/A   Scattered Clouds
1:35 AM 77.2 °F - 51.3 °F 40% 30.27 in 10.0 mi ESE 3.5 mph - N/A   Scattered Clouds
1:55 AM 76.1 °F - 52.2 °F 43% 30.26 in 10.0 mi SE 5.8 mph - N/A   Clear
2:15 AM 74.5 °F - 54.0 °F 49% 30.26 in 10.0 mi SE 3.5 mph - N/A   Clear
2:35 AM 74.7 °F - 53.4 °F 47% 30.26 in 10.0 mi ESE 4.6 mph - N/A   Clear
2:55 AM 74.5 °F - 53.1 °F 47% 30.26 in 10.0 mi SE 4.6 mph - N/A   Clear
3:15 AM 72.5 °F - 55.4 °F 55% 30.25 in 10.0 mi SE 3.5 mph - N/A   Clear
3:35 AM 70.9 °F - 56.8 °F 61% 30.25 in 10.0 mi South 4.6 mph - N/A   Clear
3:55 AM 70.0 °F - 57.0 °F 63% 30.25 in 10.0 mi South 8.1 mph - N/A   Clear
4:15 AM 71.6 °F - 55.6 °F 57% 30.26 in 10.0 mi South 3.5 mph - N/A   Clear
4:35 AM 72.0 °F - 55.4 °F 56% 30.26 in 10.0 mi South 5.8 mph - N/A   Clear
4:55 AM 71.6 °F - 55.4 °F 57% 30.26 in 10.0 mi SSW 6.9 mph - N/A   Clear
5:15 AM 71.1 °F - 55.2 °F 57% 30.27 in 10.0 mi SSW 5.8 mph - N/A   Clear
5:35 AM 69.8 °F - 56.3 °F 62% 30.28 in 10.0 mi Calm Calm - N/A   Clear
5:55 AM 70.5 °F - 55.6 °F 59% 30.28 in 10.0 mi SSE 4.6 mph - N/A   Clear
6:15 AM 69.6 °F - 56.1 °F 62% 30.29 in 10.0 mi Calm Calm - N/A   Clear
6:35 AM 66.9 °F - 57.7 °F 72% 30.30 in 10.0 mi ENE 4.6 mph - N/A   Clear
6:55 AM 68.9 °F - 57.4 °F 67% 30.31 in 10.0 mi Calm Calm - N/A   Clear
7:15 AM 68.5 °F - 59.4 °F 72% 30.31 in 10.0 mi North 3.5 mph - N/A   Clear
7:35 AM 71.1 °F - 58.3 °F 64% 30.32 in 10.0 mi Calm Calm - N/A   Clear
7:55 AM 73.2 °F - 55.8 °F 54% 30.33 in 10.0 mi Calm Calm - N/A   Clear
8:15 AM 75.2 °F - 55.0 °F 49% 30.33 in 10.0 mi ENE 3.5 mph - N/A   Clear
8:35 AM 74.3 °F - 55.4 °F 52% 30.33 in 10.0 mi NNE 5.8 mph - N/A   Clear
8:55 AM 74.7 °F - 54.1 °F 49% 30.33 in 10.0 mi NNE 5.8 mph - N/A   Clear
9:15 AM 76.6 °F - 53.2 °F 44% 30.34 in 10.0 mi NNE 3.5 mph - N/A   Clear
9:35 AM 77.7 °F - 52.5 °F 41% 30.34 in 10.0 mi Calm Calm - N/A   Clear
9:55 AM 79.3 °F - 51.1 °F 37% 30.33 in 10.0 mi Calm Calm - N/A   Clear
10:15 AM 80.4 °F - 52.0 °F 37% 30.34 in 10.0 mi Calm Calm - N/A   Clear
10:35 AM 81.5 °F - 51.1 °F 35% 30.33 in 10.0 mi Calm Calm - N/A   Clear
10:55 AM 82.0 °F 81.2 °F 53.1 °F 37% 30.34 in 10.0 mi SE 5.8 mph - N/A   Clear
11:15 AM 82.4 °F - 51.8 °F 35% 30.33 in 10.0 mi Calm Calm - N/A   Clear
11:35 AM 84.0 °F - 51.6 °F 33% 30.33 in 10.0 mi SSE 4.6 mph - N/A   Clear
11:55 AM 85.5 °F - 52.5 °F 32% 30.33 in 10.0 mi SE 4.6 mph - N/A   Clear
12:15 PM 86.0 °F - 52.3 °F 31% 30.32 in 10.0 mi South 3.5 mph - N/A   Clear
12:35 PM 86.5 °F - 51.3 °F 30% 30.31 in 10.0 mi Calm Calm - N/A   Clear
12:55 PM 86.7 °F - 51.6 °F 30% 30.30 in 10.0 mi South 5.8 mph - N/A   Clear
1:15 PM 88.5 °F - 50.7 °F 27% 30.29 in 10.0 mi SSW 3.5 mph - N/A   Clear
1:35 PM 89.2 °F - 47.7 °F 24% 30.29 in 10.0 mi SSE 3.5 mph - N/A   Clear
1:55 PM 90.0 °F - 49.6 °F 25% 30.27 in 10.0 mi SSE 3.5 mph - N/A   Clear
2:15 PM 90.5 °F - 46.6 °F 22% 30.26 in 10.0 mi South 6.9 mph - N/A   Clear
2:35 PM 91.2 °F - 48.0 °F 23% 30.25 in 10.0 mi SE 5.8 mph - N/A   Clear
2:55 PM 91.9 °F - 47.3 °F 21% 30.25 in 10.0 mi SE 4.6 mph - N/A   Clear
3:15 PM 93.2 °F - 39.2 °F 15% 30.24 in 10.0 mi SE 8.1 mph - N/A   Clear
3:35 PM 93.0 °F - 40.5 °F 16% 30.23 in 10.0 mi SE 3.5 mph - N/A   Clear
3:55 PM 92.8 °F - 39.9 °F 16% 30.21 in 10.0 mi SSW 5.8 mph - N/A   Clear
4:15 PM 93.7 °F - 43.5 °F 18% 30.20 in 10.0 mi SSE 11.5 mph - N/A   Clear
4:35 PM 91.0 °F - 46.0 °F 21% 30.21 in 10.0 mi SE 18.4 mph 28.8 mph N/A   Scattered Clouds
4:55 PM 90.7 °F - 46.6 °F 22% 30.20 in 10.0 mi SE 20.7 mph 26.5 mph N/A   Scattered Clouds
5:15 PM 90.9 °F - 46.4 °F 22% 30.20 in 10.0 mi SE 18.4 mph 23.0 mph N/A   Clear
5:35 PM 91.0 °F - 45.0 °F 20% 30.20 in 10.0 mi SSE 16.1 mph - N/A   Clear
5:55 PM 90.5 °F - 45.5 °F 21% 30.19 in 10.0 mi SE 16.1 mph 21.9 mph N/A   Clear
6:15 PM 90.1 °F - 45.0 °F 21% 30.19 in 10.0 mi SSE 12.7 mph - N/A   Clear
6:35 PM 90.0 °F - 45.0 °F 21% 30.18 in 10.0 mi SSE 12.7 mph - N/A   Clear
6:55 PM 87.1 °F - 47.7 °F 25% 30.19 in 10.0 mi South 10.4 mph - N/A   Clear
7:15 PM 84.9 °F - 48.6 °F 28% 30.19 in 10.0 mi South 9.2 mph - N/A   Clear
7:35 PM 83.7 °F - 50.0 °F 31% 30.20 in 10.0 mi South 6.9 mph - N/A   Clear
7:55 PM 82.2 °F - 50.4 °F 33% 30.21 in 10.0 mi South 9.2 mph - N/A   Clear
8:15 PM 81.7 °F - 50.0 °F 33% 30.21 in 10.0 mi South 10.4 mph - N/A   Clear
8:35 PM 83.3 °F - 48.0 °F 29% 30.21 in 10.0 mi South 11.5 mph - N/A   Clear
8:55 PM 82.6 °F - 47.1 °F 29% 30.22 in 10.0 mi South 11.5 mph - N/A   Clear
9:15 PM 82.2 °F - 46.8 °F 29% 30.22 in 10.0 mi SSW 13.8 mph - N/A   Clear
9:35 PM 81.5 °F - 46.6 °F 29% 30.22 in 10.0 mi SW 11.5 mph - N/A   Clear
9:55 PM 80.4 °F - 46.8 °F 31% 30.23 in 10.0 mi SW 11.5 mph - N/A   Clear
10:15 PM 78.1 °F - 48.2 °F 35% 30.23 in 10.0 mi WSW 9.2 mph - N/A   Clear
10:35 PM 78.4 °F - 48.6 °F 35% 30.23 in 10.0 mi WSW 6.9 mph - N/A   Clear
10:55 PM 75.9 °F - 50.7 °F 41% 30.23 in 10.0 mi WSW 6.9 mph - N/A   Clear
11:15 PM 73.8 °F - 52.7 °F 48% 30.24 in 10.0 mi WSW 8.1 mph - N/A   Clear
11:35 PM 73.2 °F - 53.6 °F 50% 30.24 in 10.0 mi SW 5.8 mph - N/A   Clear
11:55 PM 72.7 °F - 53.6 °F 51% 30.25 in 10.0 mi South 4.6 mph - N/A   Clear